TRANSIT 10 DEB, 24705

Orbit data source: Space-Track

TRANSIT 10 DEB, 24705 is space debris in LEO originally from a launch on Wed, 22 Dec 1965 UTC launched from the Air Force Western Test Range (AFWTR). Debris objects in space refer to the collection of defunct objects orbiting the Earth. Examples of debris include non-operational satellites, rocket bodies, and fragments generated from explosions, collisions, or faulty payload assembly.

Loading next visibility...
Identifier
24705, 1965-109E
Orbit
LEO
Last TLE update
17 hours ago
Origin
Manufacturer
Unknown
Mission
Spacecraft
Bus & Motor
Unknown
Mass
Unknown
Launch date (UTC)
1965-12-22 (60 years ago)
Launch vehicle
Unknown
Launch site
Air Force Western Test Range (AFWTR)
Object type
Payload
Rocket body
Debris
Shape & HBR
Unknown
Radar Cross Section
Medium (>0.1 m² and <1 m²)

Expand to show TLE details & history

TLE from 17 hours ago
0 TRANSIT 10 DEB
1 24705U 65109E   25191.64153497  .00001773  00000-0  95379-3 0  9990
2 24705  89.0562 234.1214 0084755  84.5519  31.9129 14.10631386452658
Epoch: 2025-07-10T15:23Z
TLE epoch observation values (Epoch: 2025-07-10T15:23:48.621Z)
Latitude
63.0907°
Longitude
-107.48628°
Altitude
816.237 km
Speed
7.478 km/s
True Right ascension
03h 29m 05s
True Declination
62° 57' 10"
Sunlit
Object was in daylight at epoch
Visualization orbit readout
Latitude
12.2866°
Longitude
74.49578°
Altitude
838.068 km
Speed
7.446 km/s
Apparent Right ascension
12h 53m 52s
Apparent Declination
-19° 57' 24"
Sunlit
Object is in daylight
Visualization observer readout
Local Sidereal Time
20:13:26
Azimuth
266.339° W
Elevation
-27.666°
Doppler factor
1
Orbital elements
Apogee altitude
915.473 km
Perigee altitude
792.879 km
Semi-major axis
7,232.313 km
Eccentricity
0.00848
Inclination
89.0562°
RAAN
234.1214°
Arg. of periapsis
84.5519°
True anomaly
Unknown
Mean anomaly
31.9129°
Eccentric anomaly
Unknown
Mean motion
3.5288 °/min
Orbital period
102.02 mins
BSTAR
0.00095379
Loading maneuver chart data...
Loading SW <> Apogee altitude chart data...
Loading historical data...
Loading historical data...
Loading historical data...
Loading historical data...
Loading historical data...
Loading historical data...
Loading historical data...

TRANSIT 10 DEB Visibility forecast

Observer location: undefined°, undefined°

Span
Click to sort rows by Start time (UTC) header in descending order
Start Az.
Max El. time (UTC)
Max El. Az.
Max El.
End time (UTC)
End Az.
8 mins2025-07-11 15:16:59.037Z356.717° N2025-07-11 15:19:59.037Z317.474° NNW44.126°2025-07-11 15:24:59.037Z187.414° SSW
8 mins2025-07-12 02:43:59.037Z147.538° SSE2025-07-12 02:46:59.037Z99.234° ESE35.167°2025-07-12 02:51:59.037Z13.555° NNE
6 mins2025-07-12 04:26:59.037Z243.207° WSW2025-07-12 04:29:59.037Z283.357° WNW18.613°2025-07-12 04:32:59.037Z321.044° NNW
|